ARGOS

Satellite information

Favourite Embed

Satellite Type and Status

PAYLOADIN ORBIT

Key statistics

Satellite ARGOS at a glance.

Uptime

9630

Days in orbit

Revolutions

≈ 14.2

Per day

Orbit

SSO

Sun Synchronous Orbit

Inclination

98.5

Latest

Satellite identification and parameters

Extended collection of information and parameters for ARGOS.

Object identification

Identified? True

Debris? False

Object name: ARGOS

International designator: 1999-008A

Object number (NORAD): 25634

Object ID (CCSDS): 25634

Country: UNITED STATES OF AMERICA (US)

Current information (Y/N): Y

RCS size: LARGE

Orbital parameters

Period: 101.416 minutes

Inclination: 98.4619 deg

SMA: 7203.853 km

Apoapsis: 832.593 km

Periapsis: 818.843 km

RAAN: 161.6494 deg

Eccentricy: 0.0009544

Argument of periapsis: 331.6203 deg

Mean anomaly: 28.4453 deg

Mean motion: 14.19892593 rev/day

Mean motion (dot): 0.00000047 rev/day2

B* drag term: 0.000041643 1/REarth

Two-line elements (TLE)

Creation date: July 5, 2025, 5:45 p.m.

Reference frame: TEME

Reference center: EARTH

Epoch: July 5, 2025, 12:12 p.m. UTC

TLE line 0: 0 ARGOS

TLE line 1: 1 25634U 99008A 25186.50895903 .00000047 00000-0 41643-4 0 9990

TLE line 2: 2 25634 98.4619 161.6494 0009544 331.6203 28.4453 14.19892593365102

Live tracking on map

Real-time ground track for satellite ARGOS.

In-orbit conjunctions

A list of the most updated potential collisions computed for object ARGOS.

Target Orbit TCA Probability of collision Miss distance Type
SL-16 DEB LEO 2025-04-27 14:30:44 0.000272269 97.0 (m) DEBRIS
DMSP 5D-2 F8 DEB SSO 2025-03-25 19:28:13 0.0005557605 123.0 (m) DEBRIS
SCOUT A DEB SSO 2025-01-19 19:58:19 0.0001051081 425.0 (m) DEBRIS
FENGYUN 1C DEB SSO 2024-11-16 20:11:40 0.0001009211 987.0 (m) DEBRIS
SCOUT A DEB SSO 2024-09-26 11:59:47 0.0005256117 474.0 (m) DEBRIS

Associated space launch

ARGOS (Advanced Research & Global Observation Satellite) is a testbed and demonstration program for advanced remote sensing technologies for the US Air Force's Space Test Program (STP). ARGOS's primary objective is to fly and operate advanced payloads that include two technology demonstrations and seven experiment payloads for global and celestial observation. ARGOS also has a goal of three years of on orbit operations to demonstrate and collect science data for the Earth's global environment and top priority military space programs.

ARGOS was lifted into orbit during the mission ‘Delta II | ARGOS’, on board a Delta II space rocket.

The launch took place on Feb. 23, 1999, 10:29 a.m. from Space Launch Complex 2W.

For more information about the launch, click the button.

Launch to space Delta II | ARGOS
Delta II | ARGOS

Agency: N/A

Status: Launch Successful

Launch date: Feb. 23, 1999, 10:29 a.m. UTC

Rocket: Delta II

Launch pad: Space Launch Complex 2W

Location: Vandenberg SFB, CA, USA

...

Latest news about this satellite

There are no fresh news available about this satellite. Check back as we update our databases every day.


Newsletter sign-up

Weekly statistics, charts and insights to help you stay on top of the space industry.